Theta_e
307 309 313 313 313 312 311 306 302 301 300 298 296 295 295 296 296 298 300 300 300 300 298 298 297 297 296 295 295 294 293 292 293 292 291 291 292 292 292 292 291 292 293
305 307 310 312 312 311 311 306 303 301 301 300 299 298 297 296 297 298 298 300 300 301 298 297 296 297 295 295 294 294 293 293 294 292 291 287 290 291 292 291 292 290 292
304 306 309 310 311 310 310 308 303 302 302 301 300 298 297 296 295 295 296 297 300 300 299 297 296 296 295 294 294 294 294 292 293 294 294 290 288 288 291 290 290 290 289
305 308 308 308 310 310 311 310 304 303 302 301 299 296 295 293 295 295 296 296 298 298 300 299 296 296 296 295 295 297 295 295 292 294 295 293 292 288 285 289 289 290 291
297 306 307 309 310 311 311 310 306 303 302 301 300 298 296 296 296 296 295 295 296 297 298 299 297 295 296 295 295 294 294 295 294 294 292 292 292 291 289 284 286 289 289
294 297 307 309 310 311 310 310 306 303 302 301 300 299 297 296 294 294 293 294 294 295 296 298 297 296 295 295 295 294 294 294 293 293 293 292 291 290 290 287 285 285 287
293 295 302 306 308 308 309 309 307 303 301 300 300 300 299 297 295 294 294 293 293 293 294 295 295 296 297 296 295 294 294 293 293 293 293 293 292 292 293 291 287 286 287
295 297 301 304 306 306 307 308 306 303 301 303 300 300 300 298 298 297 295 295 294 294 295 295 295 296 296 296 296 295 294 294 293 293 293 292 292 292 292 292 287 285 285
295 297 299 303 304 304 305 306 305 302 301 302 303 299 299 299 298 297 297 296 295 296 295 295 294 295 295 295 294 293 293 293 292 292 292 292 291 291 291 291 291 287 283
294 297 300 302 303 304 304 303 303 302 301 301 301 299 299 299 298 297 297 296 296 295 295 294 294 294 294 293 293 292 292 291 291 292 292 291 290 290 290 289 290 289 287
291 292 295 297 298 298 298 299 300 299 299 299 299 299 298 298 298 297 297 297 297 296 295 295 294 294 293 292 291 291 291 291 291 290 291 290 290 289 288 289 288 287 286
290 291 291 292 293 294 294 295 296 296 296 298 298 297 298 297 297 297 297 297 297 297 296 295 294 293 293 292 291 290 291 290 289 290 289 290 291 288 288 287 286 286 285
288 289 289 290 290 291 291 292 292 293 295 296 295 295 296 296 295 296 297 297 297 296 296 296 294 293 293 292 291 291 291 290 290 290 289 289 288 286 286 286 285 285 286
288 288 288 288 289 289 288 288 289 291 293 294 294 293 292 293 293 294 295 295 296 295 295 295 295 294 294 293 292 291 290 289 289 290 289 289 287 286 285 285 284 284 283
285 285 285 285 285 285 286 286 286 287 289 290 289 289 290 291 291 291 291 292 292 293 293 293 294 294 293 294 292 291 289 288 288 288 289 289 289 292 289 286 284 283 281
283 282 283 283 283 284 284 285 284 284 285 284 284 286 287 288 287 288 288 288 288 289 290 290 290 290 292 296 297 295 289 290 288 287 287 288 292 292 294 294 291 286 282
282 281 282 282 283 284 285 282 283 284 283 282 283 284 284 284 285 286 286 285 286 287 287 287 288 288 288 294 295 295 291 288 287 287 288 288 289 290 288 292 291 291 291
281 281 281 281 279 279 279 281 284 284 283 283 283 285 283 282 283 282 281 282 284 283 284 284 286 285 287 293 294 294 289 290 289 288 287 286 285 286 287 285 284 284 286
279 274 271 270 274 278 280 281 283 283 283 283 284 285 282 280 281 280 279 282 282 282 282 284 283 283 284 291 293 292 287 286 288 287 287 285 286 289 291 286 284 284 284
270 267 268 273 268 269 272 281 281 281 280 281 281 283 283 283 283 282 284 284 285 284 285 285 285 287 286 289 291 291 287 288 287 287 287 291 288 290 292 288 285 283 284
266 265 264 263 260 265 268 277 275 273 275 276 277 277 278 281 282 282 283 283 283 283 283 283 284 284 285 286 289 290 288 288 286 286 286 287 291 292 292 293 286 285 286
264 261 261 260 259 263 266 268 269 272 273 274 275 276 277 279 281 281 281 282 282 281 281 282 282 283 284 287 287 289 289 290 287 286 287 287 290 291 292 292 290 290 289
261 258 261 260 259 260 262 264 267 270 271 273 273 274 276 278 280 280 280 280 280 280 280 280 280 281 283 284 287 287 288 289 288 288 288 288 289 290 290 292 292 291 286
259 257 260 259 259 257 260 260 265 268 269 270 270 272 272 276 277 279 279 279 279 279 279 279 279 280 281 282 283 283 283 285 285 288 288 288 288 289 288 288 289 287 284
257 257 258 257 256 255 258 259 263 265 267 269 269 270 272 269 272 275 275 278 279 280 279 280 280 280 280 282 284 284 283 282 283 285 285 285 284 283 284 284 285 284 284
257 258 258 258 258 257 255 256 256 262 262 267 268 268 268 267 270 269 270 277 279 281 282 283 282 282 285 286 286 286 286 287 287 284 283 281 281 281 281 283 283 283 284
Wind_Speed
10 11 11 14 12 11 11 10 8 8 6 4 4 4 4 3 3 5 5 6 4 6 6 4 5 5 5 5 6 4 7 5 5 5 5 5 6 6 5 5 5 5 5
15 13 9 14 13 13 12 10 9 8 6 4 3 4 5 3 4 4 4 5 5 4 5 5 5 6 5 6 6 5 4 2 2 4 3 3 3 4 4 4 4 5 4
18 16 12 15 13 14 13 12 10 9 7 7 5 4 5 4 3 3 3 3 6 3 6 5 5 6 5 4 4 5 6 2 1 1 3 3 3 2 1 3 3 4 3
14 16 13 14 15 13 12 13 11 9 7 8 6 7 4 4 4 4 4 3 6 4 4 5 6 6 4 5 4 4 3 3 2 2 2 2 5 4 1 1 1 3 3
6 16 14 13 14 13 12 11 12 9 8 8 7 6 5 4 4 4 7 4 4 6 4 4 5 5 4 5 5 3 2 2 3 2 1 1 2 2 4 3 1 2 1
5 5 13 12 13 14 12 11 14 9 8 8 8 7 8 7 5 5 4 4 3 3 5 4 4 5 4 5 4 4 4 2 1 1 1 3 3 2 2 3 2 3 2
7 7 11 13 13 15 13 11 14 10 8 8 7 7 8 8 8 6 5 5 3 3 5 5 4 3 4 4 5 4 4 3 2 2 2 1 1 1 2 4 2 3 1
4 7 8 9 12 12 12 12 13 10 9 9 8 6 7 5 5 6 4 5 4 5 6 6 5 5 5 4 4 3 3 4 4 4 3 1 2 1 1 4 5 2 1
6 7 7 7 10 9 10 10 11 8 9 8 7 7 6 6 5 6 5 4 4 4 6 7 6 5 5 5 5 3 4 4 4 4 4 3 2 2 2 2 4 5 4
7 7 7 8 8 10 9 8 8 9 8 8 7 6 7 6 6 6 6 5 5 5 6 6 5 5 5 4 5 3 3 5 3 3 5 3 2 3 2 2 2 2 5
7 7 7 7 8 7 7 7 7 8 7 7 6 7 6 6 5 5 6 6 4 6 6 6 6 6 6 5 5 4 4 5 4 3 5 5 4 3 3 2 2 2 3
8 7 7 7 7 7 7 7 7 7 6 6 6 6 6 5 5 4 4 4 5 4 6 5 6 6 6 6 6 6 5 6 6 6 5 6 4 5 4 3 4 3 2
9 8 7 7 7 7 8 8 7 7 6 7 7 6 6 5 4 4 4 3 3 2 3 4 5 6 6 6 6 6 6 6 6 6 7 6 6 5 3 4 4 3 2
8 7 7 8 9 9 8 7 7 6 6 7 7 7 7 6 6 6 6 4 2 1 2 3 4 4 4 5 5 6 6 6 6 6 7 7 7 7 7 5 6 4 4
8 8 9 9 8 8 7 6 7 7 6 8 8 7 6 6 6 6 6 5 4 4 4 3 2 1 3 3 5 5 6 6 6 6 6 6 7 10 9 5 6 6 4
9 9 9 9 8 7 6 7 7 6 6 7 6 5 6 5 5 5 4 4 3 2 0 1 2 3 3 4 4 5 5 6 6 6 6 5 8 9 13 12 13 10 7
11 10 9 8 8 7 6 6 6 5 6 5 4 4 5 5 5 4 4 3 3 3 3 3 3 4 4 8 8 9 4 4 5 5 5 5 4 7 5 11 9 11 12
12 10 8 8 7 5 6 5 6 6 6 6 4 4 4 4 3 3 2 3 2 2 3 3 4 3 4 8 10 10 5 5 5 5 6 7 7 7 6 6 5 5 5
9 9 6 4 4 6 5 6 7 6 6 5 5 5 6 5 4 4 3 4 4 4 3 3 4 4 5 9 10 10 4 5 6 5 5 6 6 13 16 7 7 7 5
9 8 6 7 7 5 4 6 7 7 6 5 4 3 3 4 4 4 4 5 4 6 5 6 5 9 7 11 13 11 4 6 5 5 6 14 11 18 21 11 10 10 10
8 6 8 7 2 4 3 9 9 7 5 5 4 3 3 3 4 5 4 4 5 6 7 7 5 6 6 8 14 15 8 5 5 7 7 8 20 22 22 21 11 12 9
8 5 8 6 5 7 7 8 7 5 4 3 3 4 5 4 3 4 4 5 6 7 6 8 7 5 6 12 13 16 16 14 7 8 8 9 19 22 20 17 15 20 16
6 3 7 7 6 6 6 6 4 5 5 3 4 3 4 4 4 4 5 5 5 6 6 6 7 7 6 6 14 16 17 18 12 7 12 18 20 21 18 20 17 20 9
5 3 7 7 6 4 5 3 5 6 5 5 5 4 4 4 4 4 4 4 5 4 5 6 7 8 7 7 4 7 7 13 11 12 9 13 15 16 13 11 13 8 9
3 4 6 5 4 4 5 5 6 6 6 5 4 5 3 3 3 4 3 5 5 5 5 5 6 7 7 6 12 10 6 6 10 11 6 7 6 7 7 6 8 6 9
3 5 5 5 4 5 5 5 5 4 4 4 4 4 2 3 3 3 3 9 13 16 17 17 13 8 16 20 20 20 20 19 18 9 6 7 7 9 8 8 9 7 12
Wind_Direction
174 212 168 159 159 152 151 147 146 141 127 130 132 121 132 119 97 101 132 122 117 108 116 119 112 112 109 122 117 106 101 98 130 103 59 52 64 61 53 60 60 56 48
173 194 197 163 161 156 157 152 147 143 147 153 160 136 136 136 126 123 118 134 124 124 122 125 129 124 114 107 115 122 119 109 194 128 128 115 17 34 52 52 70 70 61
168 180 194 168 161 162 163 159 149 151 157 145 112 87 70 68 80 115 107 133 131 138 127 132 120 120 116 133 139 136 125 136 321 65 136 108 145 121 25 46 60 67 64
163 172 179 171 166 164 164 159 149 156 152 130 129 139 144 152 174 158 147 142 131 137 120 131 129 131 132 136 154 151 164 120 149 16 13 59 135 152 127 346 87 96 63
177 168 174 172 164 162 164 161 147 152 146 146 157 167 156 152 132 127 130 139 137 137 143 139 137 145 139 157 156 159 149 107 143 159 138 50 13 95 136 171 237 41 103
263 199 165 163 164 156 155 158 151 155 148 160 168 170 138 128 122 131 142 147 144 142 148 157 149 155 156 157 166 163 167 186 110 65 157 159 163 206 140 116 147 164 215
205 206 157 158 155 146 151 154 154 154 153 164 163 163 144 140 152 157 159 153 153 153 171 161 161 163 166 169 162 160 180 192 175 197 233 233 228 141 160 114 151 143 162
140 133 125 138 133 138 148 160 160 153 155 165 164 161 149 145 153 159 159 161 163 169 166 165 171 176 169 173 166 163 184 184 197 213 223 230 235 159 157 145 138 95 140
139 130 119 115 130 152 166 164 160 151 154 163 149 153 148 139 145 144 137 154 153 156 154 164 169 175 166 171 171 181 199 189 191 205 212 201 222 170 216 160 154 149 174
113 122 127 129 148 161 162 147 149 150 153 152 146 150 149 148 142 137 145 149 152 131 143 159 168 172 171 175 174 192 214 183 213 194 191 200 193 178 189 193 199 147 155
115 97 88 91 97 97 101 113 117 126 135 134 137 140 148 148 140 144 158 168 164 159 167 176 178 180 181 187 183 198 211 195 205 192 191 213 186 184 195 200 196 190 144
121 113 107 100 93 94 87 84 83 92 106 120 119 131 130 133 140 147 164 168 168 164 172 179 179 187 190 192 192 202 205 197 210 207 193 212 185 192 193 180 199 189 176
128 126 116 109 103 92 80 75 70 76 88 97 102 99 105 110 121 131 129 111 120 150 175 172 187 192 197 197 205 204 217 214 210 209 200 207 184 195 188 181 186 179 161
137 129 113 97 86 83 81 71 64 60 75 83 84 81 76 79 75 71 65 75 81 139 192 193 207 209 208 206 210 210 221 225 216 216 204 198 192 188 191 189 181 168 162
111 103 105 101 91 86 84 76 63 50 55 70 71 66 63 62 64 62 54 47 42 30 25 12 335 272 229 227 221 223 221 225 235 226 212 202 195 192 189 174 193 170 169
123 111 105 101 99 100 95 88 76 60 58 70 74 70 69 72 72 66 59 49 26 7 339 275 268 276 274 284 288 247 225 225 220 223 217 200 195 202 197 199 192 182 173
139 128 119 110 110 104 96 92 87 82 74 59 47 68 64 59 55 43 34 15 0 358 335 312 289 265 265 267 265 269 257 241 230 223 202 192 182 181 186 198 203 200 204
140 137 124 110 72 66 62 66 101 94 86 77 34 61 65 47 34 53 27 347 332 295 281 285 284 277 272 270 264 252 246 241 230 221 203 192 180 180 172 174 188 199 212
109 96 92 92 107 81 90 98 112 104 91 74 62 40 30 22 12 2 342 3 355 338 321 298 284 282 282 290 277 272 249 236 228 225 204 182 176 186 193 192 199 206 210
89 101 90 75 69 19 356 114 108 101 78 46 22 1 344 331 324 324 323 312 309 294 292 293 291 288 287 281 276 271 267 244 219 203 223 227 213 221 222 209 200 199 202
100 87 80 84 42 353 6 75 72 57 24 13 356 335 320 324 314 304 298 293 290 287 286 284 274 278 272 274 276 274 263 252 215 212 213 215 233 235 232 227 199 201 175
81 70 88 67 19 25 60 70 66 27 7 349 345 360 356 336 323 308 304 299 294 289 288 288 285 261 268 275 275 275 270 263 235 220 215 212 218 237 231 227 206 200 184
83 61 92 80 38 33 51 82 19 14 2 4 23 354 349 334 344 326 312 305 304 297 293 289 293 293 287 278 281 277 278 278 271 242 223 216 219 223 232 230 215 196 180
76 70 86 76 59 25 52 69 20 4 5 17 1 351 353 10 358 342 327 320 310 306 299 294 293 293 292 290 275 281 280 285 288 285 233 226 215 215 215 216 222 204 175
68 71 86 80 49 25 39 27 17 12 12 359 353 355 346 3 343 333 326 325 309 287 283 273 269 275 276 275 281 281 257 262 270 275 247 222 204 199 211 208 206 187 176
76 73 70 75 38 37 30 13 8 12 15 9 356 332 348 332 330 325 315 324 318 316 310 302 295 286 284 284 281 276 280 275 269 263 242 216 202 198 204 201 196 187 184